OpenBCM V2.0.2 (Linux)

Packet Radio Mailbox

IZ3LSV

[San Dona' di P. JN]

 Login: GUEST





  
LU9DCE > KEPS     31.01.17 03:16l 190 Lines 9338 Bytes #999 (0) @ WW
BID : 2831-LU9DCE
Read: GUEST
Subj: TLE OF ene 2017
Path: IZ3LSV<IR2UBX<DB0RES<DB0OVN<DB0GOS<ON0AR<OZ5BBS<CX2SA<LU4ECL<LU9DCE
Sent: 170131/0101Z @:LU9DCE.TOR.BA.ARG.SOAM #:2831 [TORTUGUITAS] FBB7.0.8-beta2
From: LU9DCE@LU9DCE.TOR.BA.ARG.SOAM
To  : KEPS@ALL

OSCAR 3
1 01293U 65016F   17030.09617179  .00000039  00000-0  56178-4 0  9997
2 01293  70.0737 268.2520 0015227  47.2355 313.0035 14.06137327650931
OSCAR 5
1 04321U 70008B   17030.50988097 -.00000032  00000-0  83892-4 0  9992
2 04321 101.7675  99.1096 0028018  76.0723  38.3801 12.52169498149258
OSCAR 6
1 06236U 72082B   17030.55545126 -.00000046  00000-0 -65327-5 0  9990
2 06236 101.6903 357.7943 0003868 224.1349 251.6127 12.53134760 26168
OSCAR 7
1 07530U 74089B   17030.88583700 -.00000036  00000-0  49768-4 0  9991
2 07530 101.6113   2.3840 0011754 228.2022 145.9256 12.53625285931658
OSCAR 8
1 10703U 78026B   17029.91041378 +.00000233 +00000-0 +19003-3 0  9990
2 10703 098.8685 356.7562 0007153 008.5494 001.9924 13.99221521985256
OSCAR 10
1 14129U 83058B   17030.54069727 -.00000117  00000-0  00000+0 0  9991
2 14129  26.8857  56.4843 6021149 268.5499  86.8825  2.05867798224985
OSCAR 11 (UoSAT 2)
1 14781U 84021B   17030.17540807  .00000118  00000-0  20827-4 0  9992
2 14781  97.7181  80.8260 0007179 296.1570  63.8905 14.82852499769896
OSCAR 16 (PACSAT)
1 20439U 90005D   17030.46158899  .00000012  00000-0  20616-4 0  9995
2 20439  98.5974 330.7840 0010266 203.6842 271.4003 14.32665347411685
OSCAR 17 (DOVE)
1 20440U 90005E   17029.86010373  .00000032  00000-0  27696-4 0  9990
2 20440  98.5778 329.4430 0010523 190.3710 239.2269 14.33059491411832
OSCAR 18 (WEBERSAT)
1 20441U 90005F   17029.85331328  .00000033  00000-0  28202-4 0  9991
2 20441  98.5806 328.7284 0010976 199.9795 228.6762 14.32713390411681
OSCAR 19 (LUSAT)
1 20442U 90005G   17030.50771189  .00000023  00000-0  24313-4 0  9997
2 20442  98.5652 328.5051 0011476 189.2319 170.8656 14.32846929411901
JAS 1B (FUJI 2)
1 20480U 90013C   17030.03173700 -.00000049  00000-0 -34407-4 0  9996
2 20480  99.0290 189.2033 0540012 344.0967  14.3739 12.83413973263993
COSMOS 2123
1 21089U 91007A   17030.84884220  .00000030  00000-0  14921-4 0  9998
2 21089  82.9244 359.7290 0030253 128.7133 295.2320 13.74643446303746
OSCAR 22 (UoSAT 5)
1 21575U 91050B   17030.50805375  .00000012  00000-0  18139-4 0  9998
2 21575  98.7624  43.5905 0007210 358.8993   1.2178 14.40781390341452
OSCAR 23 (KITSAT 1)
1 22077U 92052B   17029.92568872 -.00000056 +00000-0 +24418-4 0  9997
2 22077 066.0823 256.1665 0001191 009.3911 081.2831 12.86516932149236
KITSAT B
1 22825U 93061C   17030.14151975  .00000002  00000-0  18519-4 0  9992
2 22825  98.7934 354.1704 0008811  21.5697 338.5854 14.29984212217674
POSAT 1
1 22826U 93061D   17029.85443654 +.00000000 +00000-0 +17663-4 0  9994
2 22826 098.7876 353.9787 0009191 013.0538 347.0880 14.30311643217555
ITAMSAT
1 22828U 93061F   17029.88273101 -.00000011  00000-0  13129-4 0  9993
2 22828  98.7784 352.8433 0009554 341.0489  19.0337 14.30621462186161
EYESAT A
1 22829U 93061G   17029.90431505  .00000006  00000-0  19592-4 0  9994
2 22829  98.7819 355.5056 0009234 331.5527  89.1737 14.30956388218294
RADIO ROSTO
1 23439U 94085A   17029.72567970 -.00000035 +00000-0 +21770-3 0  9998
2 23439 064.8158 083.1220 0168088 269.3952 081.0754 11.27565765909792
JAS 2
1 24278U 96046B   17030.25629005 -.00000003  00000-0  35379-4 0  9993
2 24278  98.5822 291.7293 0350072 334.8429  23.6006 13.53074722 10228
TMSAT
1 25396U 98043C   17029.92139262 +.00000017 +00000-0 +25996-4 0  9995
2 25396 098.5694 337.1809 0003124 030.5915 329.5446 14.24426245964266
TECHSAT 1B
1 25397U 98043D   17030.08804076 -.00000009  00000-0  14968-4 0  9996
2 25397  98.5958 335.4457 0002224  63.1062 297.0344 14.23613781964140
SEDSAT 1
1 25509U 98061B   17030.55035013  .00000330  00000-0  50077-4 0  9997
2 25509  31.4337 126.2052 0347079 237.0617 119.6174 14.30255626954425
PAN SAT
1 25520U 98064B   17029.91952603 +.00001085 +00000-0 +30553-4 0  9999
2 25520 028.4566 205.9610 0005058 270.1633 089.8382 15.28166406012808
ISS (ZARYA)
1 25544U 98067A   17029.79959237 +.00006477 +00000-0 +10466-3 0  9994
2 25544 051.6442 008.1957 0007705 133.3543 296.1382 15.54209728040238
OSCAR 36 (UOSAT 12)
1 25693U 99021A   17029.93777761 -.00000089  00000-0  71886-5 0  9995
2 25693  64.5548 191.7591 0021443 325.5598  34.4116 14.80711298959691
OPAL
1 26063U 00004C   17029.90671995 -.00000010 +00000-0 +16752-4 0  9993
2 26063 100.2180 007.8052 0036299 339.3233 020.6477 14.36650845891329
SAUDISAT 1A
1 26545U 00057A   17029.77423646 +.00000170 +00000-0 +37536-4 0  9998
2 26545 064.5544 156.3526 0051653 245.8380 113.7322 14.84695309883805
TIUNGSAT 1
1 26548U 00057D   17030.54043993  .00000171  00000-0  34705-4 0  9997
2 26548  64.5510  70.4525 0044460 243.5264 116.1282 14.88927441885601
SAUDISAT 1B
1 26549U 00057E   17030.51429971  .00000052  00000-0  24579-4 0  9995
2 26549  64.5524 187.4473 0056296 247.8986 111.6138 14.83310937883223
AMSAT OSCAR 40
1 26609U 00072B   17030.14186275 -.00000280  00000-0  00000+0 0  9997
2 26609   6.4088 251.7865 7961720  73.8750 353.1448  1.25588160 74608
PCSAT
1 26931U 01043C   17029.59874916 -.00000001 +00000-0 +31541-4 0  9997
2 26931 067.0513 088.7704 0006815 281.4314 078.6021 14.30444784800452
SAPPHIRE
1 26932U 01043D   17030.17701699 -.00000036  00000-0  17981-4 0  9991
2 26932  67.0562  89.4201 0005764 294.5033  65.5467 14.30238167800637
RUBIN 2
1 27605U 02058A   17030.71553921  .00000002  00000-0  20961-4 0  9993
2 27605  64.5553 167.6223 0041329 157.3133 202.9808 14.74875035759205
SAUDISAT 1C
1 27607U 02058C   17030.87170625  .00000080  00000-0  32226-4 0  9991
2 27607  64.5545 185.1584 0040448 157.4173 202.8721 14.75276874758859
MOZHAYETS 4
1 27939U 03042A   17030.91025330  .00000116  00000-0  29367-4 0  9992
2 27939  97.9166 180.2552 0011839 305.2109 169.8500 14.66515727713199
AMSAT ECHO
1 28375U 04025K   17029.84898351  .00000040  00000-0  25121-4 0  9990
2 28375  98.3494 326.2567 0082270 341.5439  18.2770 14.41822143661887
HAMSAT
1 28650U 05017B   17029.88713234 +.00000400 +00000-0 +48620-4 0  9997
2 28650 097.6347 009.0602 0022475 226.1753 133.7607 14.88548945635593
SSETI-EXPRESS
1 28894U 05043E   17029.94864797 +.00000063 +00000-0 +21748-4 0  9991
2 28894 097.8608 193.6398 0016083 231.4070 128.5692 14.61414340599672
MOZ.5/SAFIR/RUBIN 5/SL-8
1 28898U 05043G   17029.90239248 +.00000060 +00000-0 +21751-4 0  9999
2 28898 097.9042 185.8367 0018513 262.0265 097.8835 14.60160615223026
PEHUENSAT 1
1 29712U 07001D   17029.95338741 +.00003803 +00000-0 +22767-3 0  9999
2 29712 097.5634 055.5388 0008012 040.8448 319.3381 15.11598030546343
DELFI C3
1 32789U 08021G   17029.89576320 +.00001792 +00000-0 +13275-3 0  9999
2 32789 097.5790 090.9577 0012466 205.2162 154.8457 15.04339772475979
YUBELEINY
1 32953U 08025A   17030.81514133  .00000026  00000-0  11509-3 0  9991
2 32953  82.5064 325.0871 0017902 224.3820 135.5825 12.43074598394351
PRISM (HITOMI)
1 33493U 09002B   17030.87292240  .00001162  00000-0  11065-3 0  9994
2 33493  98.1874 267.3653 0015670 170.9999 189.1512 14.95434191435253
STARS (KUKAI)
1 33498U 09002G   17030.08131800  .00000304  00000-0  49236-4 0  9995
2 33498  98.3089 199.5060 0012198  74.8902  41.2637 14.78468702431498
KKS-1 (KISEKI)
1 33499U 09002H   17029.90754219 +.00000170 +00000-0 +33211-4 0  9997
2 33499 098.3135 191.3775 0010464 094.6278 265.6126 14.75127336430557
SUMBANDILA
1 35870U 09049F   17030.13135627  .00006223  00000-0  10580-3 0  9994
2 35870  97.1099  48.2074 0001413 165.1135 239.3011 15.51793289411809
XIWANG-1 (HOPE-1)
1 36122U 09072B   17030.77053244 -.00000062  00000-0 -51388-4 0  9994
2 36122 100.1166  63.1227 0007468 187.4276 172.6728 13.16338040342542
JUGNU
1 37839U 11058B   17030.53334097  .00000319  00000-0  28448-4 0  9993
2 37839  19.9598 205.1301 0018999 105.9411 291.9018 14.12569846274214
SRMSAT
1 37841U 11058D   17029.92503626 +.00000297 +00000-0 +18105-4 0  9997
2 37841 019.9711 247.6598 0011828 002.8128 139.8053 14.10563046273646
RAX-2
1 37853U 11061D   17030.83003316  .00002506  00000-0  14887-3 0  9994
2 37853 101.7142 188.3084 0177693 133.6427 227.9674 15.00918424286035
AUBIESAT-1
1 37854U 11061E   17029.92792702 +.00003018 +00000-0 +16948-3 0  9996
2 37854 101.7062 193.2011 0169033 124.0210 237.7185 15.03546414285703
M-CUBED/EXP-1 PRIME
1 37855U 11061F   17030.17484006  .00002735  00000-0  15137-3 0  9995
2 37855 101.7190 191.4739 0182550 128.9304 232.8338 15.02496640286069
CHIBIS-M
1 38051U 11062C   14288.65876392  .70201582  12497-4  27925-2 0  9995
2 38051 051.5964 324.1908 0006422 269.6897 186.8903 16.43533377153081
MASAT-1
1 38081U 12006E   15009.86954674  .36181825  49011-5  43735-3 0  9992
2 38081 069.4150 141.5751 0006093 101.2598 259.4750 16.49686879155248

======================================================================
My own business always bores me to death; I prefer other people's.
		-- Oscar Wilde
======================================================================
        __  __  __ __
|  /  \(__\|  \/  |_    BBS GF05OM TORTUGUITAS
|__\__/ __/|__/\__|__   TELNET LU9DCE.DYNU.COM PORT 6300
== power by linux ===   TELNET LU9DCE.AMPR.ORG PORT 7300

SERVIDOR SUN NETRA X1 64BIT - LINUX+GNU - CPU UltraSPARC IIe

----------------------------------------------------------------------
* ADSB AERONAUTICA ARGENTINA : http://aviones.dynu.com/
* FACEBOOK PACKET : https://www.facebook.com/groups/newpacketradio/
* APRS SERVER T2ARGEN : lu9dce.dynu.com port 14580
----------------------------------------------------------------------



Read previous mail | Read next mail


 02.05.2026 06:16:46lGo back Go up